Regional Weather Roundup
Issued by NWS

Home | Current Version | Previous Version | Graphics & Text | Print | Product List | Glossary On
Versions: 1 2 3 4 5 6 7 8 9 10 11 12 13 14 15 16 17 18 19 20 21 22 23 24 25 26 27 28 29 30 31 32 33 34 35 36 37 38 39 40 41 42 43 44 45 46 47 48 49 50
000
ASUS43 KLOT 031812
RWRIL

ILLINOIS REGIONAL WEATHER ROUNDUP
NATIONAL WEATHER SERVICE CHICAGO/ROMEOVILLE IL
100 PM CDT FRI JUL 03 2015

NOTE: "FAIR" INDICATES FEW OR NO CLOUDS BELOW 12,000 FEET WITH NO
SIGNIFICANT WEATHER AND/OR OBSTRUCTIONS TO VISIBILITY.

* THESE STATIONS ARE NOT UNDER NWS QUALITY CONTROL. THEY ALSO MAY NOT
  REPORT WEATHER SUCH AS PRECIPITATION OR FOG.

ILZ001-002-007-009-015-016-024-031900-
NORTHWEST ILLINOIS

CITY           SKY/WX    TMP DP  RH WIND       PRES   REMARKS
MOLINE         MOSUNNY   76  58  53 NE7       29.98R
6HR MIN TEMP:  61; 6HR MAX TEMP:  76;

STERLING*      PTSUNNY   75  61  60 CALM      29.98S
SAVANNA*       PTSUNNY   74  57  55 W3        29.98F
$$

ILZ003-004-008-010-011-017-018-031900-
NORTH CENTRAL ILLINOIS

CITY           SKY/WX    TMP DP  RH WIND       PRES   REMARKS
ROCKFORD       PTSUNNY   76  56  49 CALM      29.99S
6HR MIN TEMP:  59; 6HR MAX TEMP:  77;

FREEPORT*      SUNNY     73  57  58 E3        30.00F
ROCHELLE*      PTSUNNY   73  57  57 CALM      29.99S
DE KALB*       MOSUNNY   72  56  57 NE5       29.99S
PERU*          MOSUNNY   74  55  51 E8        29.98S
$$

ILZ005-006-012>014-019>023-031900-
NORTHEAST ILLINOIS

CITY           SKY/WX    TMP DP  RH WIND       PRES   REMARKS
CHICAGO-OHARE  CLOUDY    75  54  47 E5        29.97S
6HR MIN TEMP:  59; 6HR MAX TEMP:  75;

CHICAGO-MIDWAY CLOUDY    76  54  46 NE8       29.97S
6HR MIN TEMP:  64; 6HR MAX TEMP:  76;

AURORA         MOSUNNY   75  55  49 VRB3      29.98S
6HR MIN TEMP:  59; 6HR MAX TEMP:  75;

LANSING*       PTSUNNY   74  52  46 E8        29.97S
JOLIET*        MOSUNNY   75  58  55 E5        29.97S
WAUKEGAN       MOSUNNY   70  56  61 E8        29.98S
6HR MIN TEMP:  57; 6HR MAX TEMP:  71;

DUPAGE AIRPORT MOSUNNY   74  55  51 CALM      29.97S
6HR MIN TEMP:  58; 6HR MAX TEMP:  74;

KANKAKEE*      PTSUNNY   74  58  57 E7        29.96S
WHEELING       MOSUNNY   73  53  49 E6        29.98F
6HR MIN TEMP:  57; 6HR MAX TEMP:  75;

MORRIS*        PTSUNNY   75  56  51 E8        29.96S
ROMEOVILLE*    MOSUNNY   74  54  49 E7        29.97F
NORTHERLY ISL    N/A     66  57  72 NE6         N/A
$$

LMZ740>746-031900-
SOUTHERN LAKE MICHIGAN

STATION/POSITION SKY/WX   TEMP    WIND        PRES    VSBY  WAVE
                          AIR SEA DIR/SP/G                  HT/PER
                          (F)     (DEG/KT/KT) (MB)    (MI)  (FT/S)
HARRISON CRIB              61      30/  6/  6   N/A
BURNHAM HARBOR             66      40/  6/  7   N/A
CALUMET HARBOR             65      10/  5/  6   N/A
BURNS HARBOR               63      10/  7/  9 1015.9R
MICHIGAN CITY              65     340/  2/  3   N/A
MICHIGAN CITY 6N           63 64  360/  8/ 10   N/A           1/ 3
ST. JOSEPH                 63 63                N/A           1
$$

ILZ025>027-034>036-040-047-049-050-058-095>099-031900-
WEST-CENTRAL ILLINOIS

CITY           SKY/WX    TMP DP  RH WIND       PRES   REMARKS
QUINCY         SUNNY     76  58  53 N9        29.96S
GALESBURG*     PTSUNNY   75  60  60 NE5       29.97S
MACOMB*        MOSUNNY   75  62  64 NE6       29.98S
JACKSONVILLE*  MOSUNNY   76  66  71 N3        29.94F
PITTSFIELD*    SUNNY     76  61  58 NE7       29.96S
$$

ILZ028>032-037-038-041>044-048-051>054-059>061-031900-
CENTRAL ILLINOIS

CITY           SKY/WX    TMP DP  RH WIND       PRES   REMARKS
PONTIAC        MOSUNNY   78  63  59 E5        29.97S
BLOOMINGTON    MOSUNNY   75  64  68 NE10      29.97S
DECATUR        CLOUDY    76  67  73 NE7       29.93F
PEORIA         PTSUNNY   78  62  57 E7        29.95F HX  80
6HR MIN TEMP:  63; 6HR MAX TEMP:  79;

LACON*         MOSUNNY   77  58  52 NE6       29.95S
LINCOLN*       PTSUNNY   75  65  70 N3        29.94F
SPRINGFIELD    PTSUNNY   73  64  73 N7        29.95S
6HR MIN TEMP:  64; 6HR MAX TEMP:  73;

TAYLORVILLE    CLOUDY    72  64  78 N6        29.94S
$$

ILZ033-039-045-046-055>057-062-063-031900-
EAST-CENTRAL ILLINOIS

CITY           SKY/WX    TMP DP  RH WIND       PRES   REMARKS
CHAMPAIGN      CLOUDY    75  65  70 NE7       29.93F
DANVILLE*      CLOUDY    73  65  75 NE7       29.91S
RANTOUL*       CLOUDY    76  64  67 NE6       29.94S
MATTOON        CLOUDY    75  67  76 N7        29.91F
PARIS*         MOSUNNY   76  67  74 N7        29.92F
$$

ILZ079-100>102-031900-
SOUTHWEST ILLINOIS

CITY           SKY/WX    TMP DP  RH WIND       PRES   REMARKS
ALTON          PTSUNNY   75  72  88 N10       29.93S
BELLEVILLE     PTSUNNY   79  70  73 N5        29.90F HX  82
CAHOKIA*       MOSUNNY   80  66  62 NE9       29.91F HX  82
SPARTA*        PTSUNNY   79  64  60 NW5       29.92F HX  81
$$

ILZ064>066-069>071-074>076-080>082-084>086-088>090-092>094-031900-
SOUTH-CENTRAL ILLINOIS

CITY           SKY/WX    TMP DP  RH WIND       PRES   REMARKS
CARBONDALE     PTSUNNY   80  64  58 W5        29.89F HX  82
6HR MIN TEMP:  69; 6HR MAX TEMP:  81;

CAIRO*         LGT RAIN  78  71  78 W6        29.90S HX  80
EFFINGHAM*     PTSUNNY   78  64  63 N6        29.92F
MARION         PTSUNNY   81  68  65 W7        29.90F HX  83
MT. VERNON     PTSUNNY   79  66  65 CALM      29.89F HX  81
CENTRALIA*     PTSUNNY   79  68  67 N7        29.90F HX  81
SALEM*         PTSUNNY   79  68  69 NW5       29.90F HX  82
METROPOLIS*    PTSUNNY   82  72  71 W7        29.90S HX  86
$$

ILZ067-068-072-073-078-083-087-091-031900-
SOUTHEAST ILLINOIS

CITY           SKY/WX    TMP DP  RH WIND       PRES   REMARKS
LAWRENCEVILLE  PTSUNNY   77  70  79 N6        29.88F
FLORA*         PTSUNNY   77  67  73 N5        29.89F
FAIRFIELD*     RAIN      75  71  85 NW5       29.88S
HARRISBURG*    MOSUNNY   80  69  69 NW6       29.89F HX  83
ROBINSON*      PTSUNNY   75  67  76 NE3       29.90F
CARMI*         PTSUNNY   79  67  67 CALM      29.87F HX  81
$$

ABBREVIATIONS USED IN REMARKS
   TC - TEMPERATURE IN CELSIUS
  WCI - WIND CHILL INDEX
   HX - HEAT INDEX
  VSB - VISIBILITY
$$



USA.gov is the U.S. government's official web portal to all federal, state and local government web resources and services.